Tracking 20232 objects as of 21-Jan-2020
HD Live streaming from Space Station
objects crossing your sky now

YUNHAI 2 4

Track YUNHAI 2 4 now!
10-day predictions


NORAD ID: 43912
Int'l Code: 2018-112D
Perigee: 795.3 km
Apogee: 817.9 km
Inclination: 50.0 °
Period: 100.9 minutes
Semi major axis: 7177 km
RCS: Unknown
Launch date: December 29, 2018
Source: People's Republic of China (PRC)
Launch site: Jiuquan Satellite Launch Center, China (JSC)
aabbcc
Your satellite tracking list
Your tracking list is empty




NASA's NSSDC Master Catalog

Two Line Element Set (TLE):
1 43912U 18112D   20020.87583546 -.00000205  00000-0 -17357-4 0  9998
2 43912  50.0121 122.7640 0015792  62.3169 297.9350 14.27688265 53274
Source of the keplerian elements: AFSPC